Home   Weather   Oberlin   Past weeks
Flag for USA

Past Weather in Oberlin, Ohio, USA — Yesterday and Last 2 Weeks

Now
82 °F

Partly cloudy.


Feels Like: 85 °F
Forecast: 82 / 70 °F
Wind: 10 mph from North

Location: Lorain County Regional Airport

Current Time: Jul 20, 2019 at 10:58:44 pm

Latest Report: Jul 20, 2019 at 9:53 pm


Visibility: 10 mi

Pressure: 29.90 "Hg

Humidity: 63%

Dew Point: 68 °F

Location of OberlinLocation

Past Weather in Oberlin — Graph

°F

Oberlin Temperature Yesterday

Maximum temperature yesterday: 93 °F (at 4:53 pm)
Minimum temperature yesterday: 75 °F (at 3:53 am)
Average temperature yesterday: 84 °F

High & Low Weather Summary for the Past Weeks

 TemperatureHumidityPressure
High93 °F (Jul 19, 4:53 pm)85% (Jul 18, 5:53 am)30.14 "Hg (Jul 18, 5:53 am)
Low56 °F (Jul 9, 3:53 am)25% (Jul 14, 6:53 pm)29.78 "Hg (Jul 11, 3:53 pm)
Average77 °F63%29.96 "Hg
* Reported Jul 5 9:53 pm — Jul 20 9:53 pm, Oberlin. Weather by CustomWeather, © 2019

Note: Actual official high and low records may vary slightly from our data, if they occured in-between our weather recording intervals... More about our weather records

Advertising

Oberlin Weather History for the Previous 24 Hours

Scroll right to see more
 ConditionsComfort  
Time TempWeatherWind HumidityBarometerVisibility
9:53 pm
Sat, Jul 20
82 °FPartly cloudy.10 mph63%29.90 "Hg10 mi
8:53 pm85 °FSunny.6 mph65%29.88 "Hg10 mi
7:53 pm89 °FSunny.8 mph55%29.88 "Hg10 mi
6:53 pm91 °FPassing clouds.9 mph52%29.87 "Hg10 mi
5:53 pm91 °FSunny.13 mph49%29.88 "Hg10 mi
4:53 pm93 °FPassing clouds.20 mph47%29.88 "Hg10 mi
3:53 pm93 °FSunny.21 mph49%29.87 "Hg10 mi
2:53 pm93 °FSunny.15 mph50%29.86 "Hg10 mi
1:53 pm91 °FSunny.16 mph49%29.87 "Hg10 mi
12:53 pm86 °FSunny.6 mph57%29.88 "Hg10 mi
11:53 am85 °FSunny.12 mph57%29.88 "Hg10 mi
10:53 am82 °FSunny.7 mph63%29.89 "Hg10 mi
9:53 am80 °FSunny.9 mph69%29.89 "Hg10 mi
8:53 am78 °FSunny.8 mph76%29.90 "Hg10 mi
7:53 am77 °FSunny.8 mph77%29.92 "Hg10 mi
6:53 am75 °FCloudy.7 mph82%29.94 "Hg10 mi
6:35 am76 °FThundershowers. Mostly cloudy.10 mph80%29.97 "Hg9 mi
6:00 am78 °FThunderstorms. Partly cloudy.12 mph79%29.95 "Hg7 mi
5:04 am80 °FThunderstorms. Mostly cloudy.8 mph71%29.95 "Hg10 mi
4:53 am80 °FThundershowers. Mostly cloudy.8 mph71%29.93 "Hg10 mi
3:53 am80 °FOvercast.8 mph71%29.94 "Hg10 mi
2:53 am81 °FPassing clouds.8 mph69%29.92 "Hg10 mi
1:53 am82 °FPassing clouds.7 mph67%29.91 "Hg10 mi
12:53 am83 °FClear.12 mph65%29.90 "Hg10 mi
11:53 pm
Fri, Jul 19
83 °FClear.13 mph65%29.87 "Hg10 mi
10:53 pm83 °FClear.10 mph65%29.88 "Hg10 mi
Weather by CustomWeather, © 2019

See weather overview